When you browse on this site, cookies collect data to enhance your experience and personalize the content and advertising you see.
Visit our Privacy Policy to learn more. By continuing to use the site, you agree to this use of cookies and data.

Hourly Weather Aberdeen

Today, 23 September, Wednesday

Time Temperature Precipitation Wind Pressure Humidity
00:00 +11°C° 0 mm 4 mps 740 mmHg 90%
01:00 +9°C° 0 mm 3 mps 741 mmHg 88%
02:00 +8°C° 0 mm 3 mps 741 mmHg 87%
03:00 +7°C° 0 mm 3 mps 742 mmHg 86%
04:00 +7°C° 0 mm 2 mps 742 mmHg 86%
05:00 +6°C° 0 mm 2 mps 742 mmHg 87%
06:00 +5°C° 0 mm 2 mps 743 mmHg 87%
07:00 +7°C° 0 mm 2 mps 743 mmHg 82%
08:00 +8°C° 0 mm 2 mps 743 mmHg 76%
09:00 +9°C° 0 mm 2 mps 743 mmHg 71%
10:00 +10°C° 0 mm 2 mps 743 mmHg 66%
11:00 +12°C° 0 mm 2 mps 743 mmHg 60%
12:00 +13°C° 0 mm 2 mps 743 mmHg 55%
13:00 +12°C° 0 mm 2 mps 743 mmHg 57%
14:00 +12°C° 0 mm 2 mps 742 mmHg 59%
15:00 +11°C° 0 mm 3 mps 742 mmHg 61%
16:00 +10°C° 0.1 mm 3 mps 742 mmHg 69%
17:00 +9°C° 0.1 mm 3 mps 741 mmHg 76%
18:00 +8°C° 0.1 mm 2 mps 741 mmHg 83%
19:00 +7°C° 0 mm 2 mps 741 mmHg 85%
20:00 +7°C° 0 mm 2 mps 740 mmHg 87%
21:00 +6°C° 0 mm 2 mps 740 mmHg 88%
22:00 +6°C° 0 mm 2 mps 740 mmHg 89%
23:00 +6°C° 0 mm 2 mps 739 mmHg 89%

Tomorrow, 24 September, Thursday

Time Temperature Precipitation Wind Pressure Humidity
00:00 +5°C° 0 mm 2 mps 739 mmHg 89%
01:00 +5°C° 0 mm 2 mps 738 mmHg 89%
02:00 +5°C° 0 mm 2 mps 738 mmHg 89%
03:00 +4°C° 0 mm 2 mps 738 mmHg 89%
04:00 +4°C° 0 mm 2 mps 737 mmHg 89%
05:00 +4°C° 0 mm 2 mps 737 mmHg 88%
06:00 +4°C° 0 mm 2 mps 737 mmHg 87%
07:00 +5°C° 0 mm 2 mps 737 mmHg 82%
08:00 +7°C° 0 mm 3 mps 737 mmHg 77%
09:00 +8°C° 0 mm 3 mps 737 mmHg 72%
10:00 +9°C° 0 mm 3 mps 737 mmHg 68%
11:00 +10°C° 0 mm 4 mps 737 mmHg 64%
12:00 +10°C° 0 mm 4 mps 737 mmHg 59%
13:00 +11°C° 0 mm 4 mps 737 mmHg 59%
14:00 +11°C° 0 mm 4 mps 737 mmHg 59%
15:00 +11°C° 0 mm 4 mps 738 mmHg 58%
16:00 +10°C° 0 mm 4 mps 738 mmHg 63%
17:00 +7°C° 0 mm 4 mps 739 mmHg 67%
18:00 +6°C° 0 mm 4 mps 739 mmHg 72%
19:00 +5°C° 0 mm 3 mps 740 mmHg 74%
20:00 +5°C° 0 mm 3 mps 741 mmHg 77%
21:00 +4°C° 0 mm 3 mps 741 mmHg 80%
22:00 +3°C° 0 mm 3 mps 742 mmHg 80%
23:00 +3°C° 0 mm 3 mps 743 mmHg 81%

Day after tomorrow, 25 September, Friday

Time Temperature Precipitation Wind Pressure Humidity
00:00 +3°C° 0 mm 3 mps 743 mmHg 82%
01:00 +3°C° 0 mm 3 mps 744 mmHg 82%
02:00 +3°C° 0 mm 3 mps 745 mmHg 83%
03:00 +3°C° 0 mm 3 mps 745 mmHg 83%
04:00 +2°C° 0 mm 3 mps 746 mmHg 84%
05:00 +2°C° 0 mm 3 mps 746 mmHg 85%
06:00 +2°C° 0 mm 3 mps 747 mmHg 85%
07:00 +4°C° 0 mm 3 mps 748 mmHg 80%
08:00 +6°C° 0 mm 4 mps 748 mmHg 74%
09:00 +7°C° 0 mm 4 mps 749 mmHg 68%
10:00 +8°C° 0 mm 5 mps 749 mmHg 67%
11:00 +8°C° 0 mm 6 mps 750 mmHg 66%
12:00 +9°C° 0 mm 7 mps 751 mmHg 65%
13:00 +9°C° 0 mm 6 mps 751 mmHg 61%
14:00 +10°C° 0 mm 6 mps 751 mmHg 57%
15:00 +10°C° 0 mm 5 mps 752 mmHg 53%
16:00 +8°C° 0 mm 5 mps 752 mmHg 59%
17:00 +7°C° 0 mm 4 mps 752 mmHg 64%
18:00 +5°C° 0 mm 4 mps 752 mmHg 70%
19:00 +4°C° 0 mm 4 mps 753 mmHg 74%
20:00 +3°C° 0 mm 3 mps 753 mmHg 77%
21:00 +2°C° 0 mm 3 mps 754 mmHg 81%
22:00 +2°C° 0 mm 3 mps 754 mmHg 82%
23:00 +1°C° 0 mm 3 mps 753 mmHg 83%

26 September, Saturday

Time Temperature Precipitation Wind Pressure Humidity
00:00 +1°C° 0 mm 3 mps 753 mmHg 84%
01:00 +1°C° 0 mm 3 mps 753 mmHg 84%
02:00 0°C° 0 mm 3 mps 753 mmHg 84%
03:00 0°C° 0 mm 3 mps 752 mmHg 84%
04:00 0°C° 0 mm 3 mps 752 mmHg 84%
05:00 0°C° 0 mm 3 mps 752 mmHg 84%
06:00 0°C° 0 mm 3 mps 752 mmHg 84%
07:00 +1°C° 0 mm 4 mps 752 mmHg 77%
08:00 +3°C° 0 mm 5 mps 752 mmHg 70%
09:00 +6°C° 0 mm 5 mps 752 mmHg 63%
10:00 +7°C° 0 mm 6 mps 752 mmHg 60%
11:00 +8°C° 0 mm 6 mps 752 mmHg 58%
12:00 +9°C° 0 mm 6 mps 752 mmHg 56%
13:00 +10°C° 0 mm 6 mps 752 mmHg 56%
14:00 +10°C° 0 mm 5 mps 753 mmHg 56%
15:00 +10°C° 0 mm 5 mps 753 mmHg 56%
16:00 +10°C° 0 mm 4 mps 753 mmHg 62%
17:00 +7°C° 0 mm 4 mps 753 mmHg 68%
18:00 +7°C° 0 mm 3 mps 753 mmHg 74%
19:00 +5°C° 0 mm 3 mps 753 mmHg 78%
20:00 +4°C° 0 mm 3 mps 754 mmHg 81%
21:00 +3°C° 0 mm 3 mps 754 mmHg 85%
22:00 +3°C° 0 mm 3 mps 754 mmHg 86%
23:00 +2°C° 0 mm 3 mps 754 mmHg 87%

27 September, Sunday

Time Temperature Precipitation Wind Pressure Humidity
00:00 +2°C° 0 mm 3 mps 753 mmHg 88%
01:00 +2°C° 0 mm 3 mps 753 mmHg 89%
02:00 +3°C° 0 mm 2 mps 753 mmHg 89%
03:00 +2°C° 0 mm 2 mps 753 mmHg 89%
04:00 +2°C° 0 mm 2 mps 753 mmHg 89%
05:00 +2°C° 0 mm 2 mps 753 mmHg 88%
06:00 +2°C° 0 mm 2 mps 753 mmHg 88%
07:00 +4°C° 0 mm 2 mps 753 mmHg 82%
08:00 +5°C° 0 mm 2 mps 753 mmHg 76%
09:00 +8°C° 0 mm 1 mps 753 mmHg 70%
10:00 +9°C° 0 mm 1 mps 752 mmHg 65%
11:00 +10°C° 0 mm 1 mps 752 mmHg 60%
12:00 +11°C° 0 mm 1 mps 752 mmHg 56%
13:00 +10°C° 0 mm 2 mps 752 mmHg 56%
14:00 +10°C° 0 mm 2 mps 751 mmHg 56%
15:00 +12°C° 0 mm 2 mps 751 mmHg 56%
16:00 +9°C° 0 mm 2 mps 751 mmHg 63%
17:00 +7°C° 0 mm 2 mps 751 mmHg 70%
18:00 +6°C° 0 mm 2 mps 751 mmHg 78%
19:00 +5°C° 0 mm 2 mps 750 mmHg 80%
20:00 +5°C° 0 mm 2 mps 750 mmHg 82%
21:00 +4°C° 0 mm 2 mps 750 mmHg 84%
22:00 +4°C° 0 mm 2 mps 750 mmHg 84%
23:00 +4°C° 0 mm 2 mps 750 mmHg 84%

28 September, Monday

Time Temperature Precipitation Wind Pressure Humidity
00:00 +5°C° 0 mm 1 mps 749 mmHg 85%
01:00 +5°C° 0 mm 2 mps 749 mmHg 83%
02:00 +5°C° 0 mm 2 mps 749 mmHg 81%
03:00 +6°C° 0 mm 2 mps 748 mmHg 80%
04:00 +6°C° 0 mm 2 mps 748 mmHg 81%
05:00 +6°C° 0 mm 2 mps 748 mmHg 83%
06:00 +5°C° 0 mm 2 mps 748 mmHg 85%
07:00 +7°C° 0 mm 2 mps 748 mmHg 83%
08:00 +8°C° 0 mm 2 mps 748 mmHg 81%
09:00 +10°C° 0 mm 2 mps 747 mmHg 79%
10:00 +12°C° 0 mm 2 mps 747 mmHg 78%
11:00 +14°C° 0 mm 2 mps 747 mmHg 77%
12:00 +15°C° 0 mm 2 mps 747 mmHg 76%
13:00 +14°C° 0.2 mm 2 mps 747 mmHg 81%
14:00 +14°C° 0.2 mm 1 mps 746 mmHg 85%
15:00 +13°C° 0.2 mm 1 mps 746 mmHg 90%
16:00 +13°C° 2.6 mm 1 mps 746 mmHg 93%
17:00 +12°C° 2.6 mm 1 mps 746 mmHg 95%
18:00 +12°C° 2.6 mm 1 mps 746 mmHg 97%
19:00 +12°C° 2.4 mm 2 mps 746 mmHg 95%
20:00 +10°C° 2.4 mm 3 mps 746 mmHg 94%
21:00 +10°C° 2.4 mm 4 mps 746 mmHg 92%
22:00 +8°C° 0.1 mm 4 mps 746 mmHg 92%
23:00 +9°C° 0.1 mm 3 mps 746 mmHg 92%
Show more